User: anonymous   Login
Location: Hertford
(51.8000°N, 0.0667°W)
Time: 19:55:06
(UTC+00:00)
Language:

Cosmos 1937 Rocket - Orbit

View from above orbital plane
View from above orbital plane
View from above satellite
View from above satellite

Ground track
Ground track

The orbit data is extracted from the following two-line orbital elements,

1 19039U 88029B   21169.32930530  .00000083  00000-0  35864-4 0  9994
2 19039  74.0472 126.6014 0024787 295.5702  64.2890 14.38518350740789
Epoch (UTC): 18 June 2021 07:54:11
Eccentricity: 0.0024787
inclination: 74.0472°
perigee height: 746 km
apogee height: 781 km
right ascension of ascending node: 126.6014°
argument of perigee: 295.5702°
revolutions per day: 14.38518350
mean anomaly at epoch: 64.2890°
orbit number at epoch: 74078

The dashed part of the orbit path shows where the satellite is in the earth's shadow,  

DLR